Regional Weather Roundup
Issued by NWS

Home | Current Version | Previous Version | Text Only | Print | Product List | Glossary On
Versions: 1 2 3 4 5 6 7 8 9 10 11 12 13 14 15 16 17 18 19 20 21 22 23 24 25 26 27 28 29 30 31 32 33 34 35 36 37 38 39 40 41 42 43 44 45 46 47 48 49 50
000
ASUS45 KREV 231410
RWRNV
NEVADA REGIONAL WEATHER ROUNDUP
NATIONAL WEATHER SERVICE RENO NV
700 AM PDT SUN APR 23 2017

NOTE: "FAIR" INDICATES FEW OR NO CLOUDS BELOW 12,000 FEET WITH NO
SIGNIFICANT WEATHER AND/OR OBSTRUCTIONS TO VISIBILITY.

NVZ001-003-004-231500-
WESTERN NEVADA

CITY           SKY/WX    TMP DP  RH WIND       PRES   REMARKS
RENO           MOCLDY    45  31  58 N3        29.92R
CARSON CITY    FAIR      50  19  29 CALM      29.92R
MINDEN         FAIR      48  25  40 W10       29.91S
FALLON         CLOUDY    44  30  57 CALM      29.91R
LOVELOCK       CLOUDY    47  31  53 NE8       29.91R
HAWTHORNE      CLEAR     52  32  46 NW12      29.89R
$$

NVZ002-CAZ072-073-231500-
NORTHERN AND CENTRAL SIERRA

CITY           SKY/WX    TMP DP  RH WIND       PRES   REMARKS
S. LAKE TAHOE  MOCLDY    40  32  73 SW3       29.96R
TRUCKEE        MOCLDY    37  23  56 NW3       29.95R
SQUAW VLY 8000   N/A     32  23  69 SW13        N/A
SUSANVILLE     CLEAR     41  34  75 W7        29.95R
MAMMOTH LAKES  FAIR      49  21  33 S23G32    29.94R
BRIDGEPORT       N/A     46  22  38 SW7G21    29.91S
$$

NVZ030-031-036-231500-
NORTHERN NEVADA

CITY           SKY/WX    TMP DP  RH WIND       PRES   REMARKS
ELKO           CLOUDY    43  37  79 CALM      29.89R
WINNEMUCCA     CLOUDY    43  35  73 E3        29.92R
WENDOVER       SUNNY     48  34  58 CALM      29.88R
$$

NVZ035-037-231500-
CENTRAL NEVADA

CITY           SKY/WX    TMP DP  RH WIND       PRES   REMARKS
ELY            SUNNY     46  27  47 S9        29.91S
EUREKA           N/A     36  29  75 CALM      29.91S
$$

NVZ013-014-231500-
SOUTH CENTRAL NEVADA

CITY           SKY/WX    TMP DP  RH WIND       PRES   REMARKS
TONOPAH        SUNNY     45  32  60 N14       29.89R
$$

NVZ017-020-022-231500-
SOUTHERN NEVADA

CITY           SKY/WX    TMP DP  RH WIND       PRES   REMARKS
LAS VEGAS      PTSUNNY   71  25  17 S7        29.76R
N. LAS VEGAS   PTSUNNY   64  30  27 CALM      29.77R
NELLIS AFB     PTSUNNY   64  27  24 N6        29.77R
HENDERSON      PTSUNNY   66  27  23 SW14      29.81R
MERCURY        MOSUNNY   70  25  18 S18G26    29.77S
$$



USA.gov is the U.S. government's official web portal to all federal, state and local government web resources and services.